Flag for USA

Past Weather in Fayetteville, North Carolina, USA — Yesterday and Last 2 Weeks

Now
62 °F

Clear.


Feels Like: 62 °F
Forecast: 69 / 57 °F
Wind: 12 mph from Northeast

Location: Fayetteville Regional Airport
Current Time: Sep 19, 2020 at 7:27:48 am
Latest Report: Sep 19, 2020 at 5:53 am
Visibility: 10 mi
Pressure30.09 "Hg
Humidity: 78%
Dew Point: 55 °F
Location of FayettevilleLocation

Past Weather in Fayetteville — Graph

°F

Fayetteville Temperature Yesterday

Maximum temperature yesterday: 77 °F (at 4:53 pm)
Minimum temperature yesterday: 66 °F (at 11:53 pm)
Average temperature yesterday: 72 °F

High & Low Weather Summary for the Past Weeks

 TemperatureHumidityPressure
High96 °F (Sep 4, 3:53 pm)97% (Sep 11, 4:53 am)30.24 "Hg (Sep 11, 4:53 am)
Low59 °F (Sep 16, 4:53 am)35% (Sep 6, 4:53 pm)29.77 "Hg (Sep 17, 5:23 pm)
Average75 °F77%30.06 "Hg
* Reported Sep 4 5:53 am — Sep 19 5:53 am, Fayetteville. Weather by CustomWeather, © 2020

Note: Actual official high and low records may vary slightly from our data, if they occured in-between our weather recording intervals... More about our weather records

Fayetteville Weather History for the Previous 24 Hours

Scroll right to see more
 ConditionsComfort  
Time TempWeatherWind HumidityBarometerVisibility
5:53 am
Sat, Sep 19
62 °FClear.12 mph78%30.09 "Hg10 mi
4:53 am63 °FClear.12 mph78%30.07 "Hg10 mi
3:53 am64 °FClear.13 mph84%30.04 "Hg10 mi
2:53 am65 °FClear.12 mph85%30.04 "Hg10 mi
1:53 am65 °FClear.9 mph85%30.04 "Hg10 mi
12:53 am66 °FClear.7 mph84%30.04 "Hg10 mi
11:53 pm
Fri, Sep 18
66 °FClear.8 mph87%30.03 "Hg10 mi
10:53 pm68 °FClear.10 mph82%30.01 "Hg10 mi
9:53 pm68 °FClear.8 mph82%30.00 "Hg10 mi
8:53 pm69 °FClear.8 mph81%29.97 "Hg10 mi
7:53 pm70 °FClear.8 mph79%29.95 "Hg10 mi
6:53 pm73 °FSunny.8 mph74%29.92 "Hg10 mi
5:53 pm75 °FOvercast.13 mph71%29.89 "Hg10 mi
4:53 pm77 °FOvercast.13 mph66%29.88 "Hg10 mi
3:53 pm76 °FMostly cloudy.17 mph67%29.87 "Hg10 mi
2:53 pm76 °FCloudy.16 mph69%29.85 "Hg10 mi
2:24 pm76 °FMostly cloudy.17 mph69%29.88 "Hg10 mi
1:53 pm76 °FCloudy.13 mph72%29.86 "Hg10 mi
1:30 pm74 °FMostly cloudy.17 mph74%29.88 "Hg10 mi
12:53 pm73 °FCloudy.20 mph79%29.86 "Hg10 mi
12:26 pm72 °FMostly cloudy.16 mph81%29.89 "Hg10 mi
12:10 pm72 °FMostly cloudy.15 mph84%29.88 "Hg10 mi
12:00 pm71 °FMostly cloudy.17 mph84%29.88 "Hg10 mi
Weather by CustomWeather, © 2020

See weather overview